Terug naar catalogus

METEOR 2-5 DEB

ActiefPO
NORAD 45508·DEBRIS·🇷🇺 Russia

Gelanceerd Oct 31, 1979 vanaf Plesetsk Cosmodrome

Loading…

Volgende Passages (komende 24 uur)

TLE

VerouderendSource: Space-Track

Epoch: Sep 4, 2026, 18:40 UTC

1 45508U 79095CQ  26247.77827418  .00003991  00000-0  11399-2 0  9994
2 45508  81.1789  48.5640 0006828 150.4926 209.6650 14.45014895 59560

Volg METEOR 2-5 DEB in realtime met AllMySat

Download on the App Store